www.pogodaiklimat.ru

Погода и климат >> Архив погоды >> Россия >> Хабаровский край >> Байдуков


ПОГОДА в Байдукове

  • Прогноз погоды в Байдукове
  • Монитор погоды в Байдукове
  • Климат города

АРХИВ ПОГОДЫ в Байдукове

Время (UTC), дата Ветер
(напр.,м/с)
 
Видим.   Явления Облачность Т
(С)
Тd
(С)
f
(%)
Тe
(С)
Тes
(С)
Комфортность P
(гПа)
Po
(гПа)
Тmin
(С)
Tmax
(С)
R
(мм)
R24
(мм)
S
(см)
09 17.08 В 2 10 км 10 баллов +15.4 +12.7 84 +15 +15 1017.9 1017.3 +16.6 0.7
15 17.08 В 4 10 км 3/3 600 м
[Sc]
+13.9 +11.8 87 +12 +12 1016.2 1015.2
21 17.08 ЮВ 2 10 км 10 баллов +13.0 +11.1 88 +12 +12 1016.6 1016.0 +12.7
03 18.08 ЮВ 3 50 км 10/10 600 м
[Sc]
+16.8 +11.8 72 +17 +17 1015.4 1014.5
09 18.08 ЮВ 4 50 км 4 балла +17.0 +11.9 72 +17 +17 1015.3 1014.7 +18.3
15 18.08 ЮВ 5 50 км 10/10 600 м
[Sc]
+15.1 +11.7 80 +14 +14 1015.1 1014.1
21 18.08 Ю 6 н/о н/о +15.7 +13.2 85 +14 1015.3 1014.7 +14.4
03 19.08 Ю 8
{10}
50 км 4/4 600 м
[Sc]
+18.1 +13.5 74 +17 +19 1013.2 1012.2
09 19.08 Ю 8-11
{11}
50 км 6/0
[Ci fib]
+19.4 +15.4 78 +20 +20 1011.6 1010.7 +20.3
15 19.08 Ю 8 50 км 2 балла +18.2 +15.8 86 +18 +18 1011.3 1010.7
21 19.08 Ю 9-12
{14}
50 км 10/9 600 м
[Sc Ac trans]
+18.6 +16.2 86 +19 +19 1009.0 1008.1 +18.0
03 20.08 Ю 13 50 км 10 баллов +19.5 +17.3 87 +21 +21 комфорт 1007.3 1006.7
09 20.08 СЗ 7
{17}
10 км в посл. час дождь 10/10 200 м
[St As op]
+15.2 +14.4 95 +13 +13 1007.7 1006.8 +20.0 9
15 20.08 З 5 50 км 4/0
[Ci fib]
+14.3 +12.1 87 +13 +13 1009.4 1008.4
21 20.08 З 4 50 км 2 балла +13.9 +10.9 82 +12 +13 1009.9 1009.3 +13.5
03 21.08 З 5 50 км 6/0
[Ci fib]
+21.9 +10.3 48 +24 +29 комфорт 1008.9 1008.0
09 21.08 СВ 1 50 км 7 баллов +20.0 +9.0 49 +22 +22 комфорт 1008.6 1008.0 +22.5
15 21.08 СЗ 3 50 км 4/0
[Ci fib]
+14.7 +11.8 83 +14 +14 1008.9 1008.0
21 21.08 СЗ 4 50 км 7 баллов +13.7 +12.8 94 +12 +12 1008.6 1008.0 +11.9
03 22.08 СЗ 6 50 км 10/10 600 м
[Sc]
+15.4 +12.0 80 +14 +14 1007.1 1006.2
09 22.08 С 5 50 км 10 баллов +15.3 +11.7 79 +14 +14 1007.3 1006.7 +16.8
15 22.08 СВ 2 50 км 10/10 600 м
[Sc]
+15.3 +11.4 78 +15 +15 1005.7 1004.8
21 22.08 В 5 20 км 10 баллов +14.5 +12.2 86 +13 +13 1005.9 1005.3 +14.5
03 23.08 СВ 7 4000 м слабая морось 10/10 300 м
[St]
+14.8 +13.7 93 +13 +13 1004.6 1003.7
09 23.08 В 6 20 км 10 баллов +16.3 +12.1 76 +15 +15 1005.9 1005.3 +16.6 2
15 23.08 В 8 20 км 10 баллов +14.7 +11.5 81 +12 +12 1007.3 1006.7
21 23.08 В 6 50 км 10 баллов +14.7 +11.8 83 +13 +13 1008.6 1008.0 +14.4
03 24.08 СВ 6 50 км 9/4 600 м
[Sc diur, vesp Ac cuf]
+16.3 +12.4 78 +15 +16 1006.1 1005.2

 

Местоположение метеостанции Байдуков (Хабаровский край, Россия): широта 53.30 долгота 141.40 высота над уровнем моря 5 м.

В архиве по умолчанию представлена погода в Байдукове за последнюю неделю. Архивные данные за месяц целиком и за предыдущие месяцы, начиная с января 2011 года, Вы можете получить, выбрав интересующий диапазон дат из раскрывающегося списка и нажав кнопку "Ввод!".

Внимание! Время в таблицах - всемирное. Для получения местного времени необходимо прибавить поправку, которая в Байдукове равна 10 ч.

Смотрите также архив погоды в соседних городах и на ближайших метеорологических станциях:

Погода в Николаевск-на-Амуре (Хабаровский край, Россия) (50 км)
Погода в Джаоре (Хабаровский край, Россия) (71 км)
Погода в Москальво (Сахалинская область, Россия) (79 км)
Погода в Оха (Сахалинская область, Россия) (102 км)
Погода в Литке (Хабаровский край, Россия) (102 км)
Погода в Одопту (Сахалинская область, Россия) (120 км)
Погода в Погибях (Сахалинская область, Россия) (121 км)
Погода в Богородском (Хабаровский край, Россия) (122 км)
Погода в Ныврово (Сахалинская область, Россия) (139 км)
Погода в Вал (Сахалинская область, Россия) (152 км)

Пояснения к столбцам:

Ветер - указаны скорость ветра в м/с - средняя за 10 мин, порывы в срок и между сроками (в фигурных скобках) и направление, откуда дует ветер: С - северный, СВ - северо-восточный, В - восточный, ЮВ - юго-восточный, Ю - южный, ЮЗ - юго-западный, З - западный, СЗ - северо-западный.
Видимость - горизонтальная дальность видимости в метрах или километрах. При видимости от 1 до 10 км при отсутствии осадков обычно наблюдается дымка, при ухудшении видимости до 1 км и менее - туман. В сухую погоду видимость может ухудшаться дымом, пылью или мглою.
Явления - указаны атмосферные явления, наблюдавшиеся в срок или в последний час перед сроком; фигурными скобками обозначены явления, наблюдавшиеся между сроками (за 1-3 часа до срока); квадратными скобками обозначены град или гололедные отложения с указанием их диаметра в мм.
Облачность - указаны через наклонную черту общая и нижняя облачность в баллах и высота нижней границы облаков в метрах; квадратными скобками обозначены формы облаков: Ci - перистые, Cs - перисто-слоистые, Cc - перисто-кучевые, Ac - высококучевые, As - высокослоистые, Sc - слоисто-кучевые, Ns - слоисто-дождевые, Cu - кучевые, Cb - кучево-дождевые. Подробнее классификацию облаков см. в Атласе облаков (PDF).
T - Температура воздуха - температура, измеренная на высоте 2 м над землей.
Td - Температура точки росы - температура, при понижении до которой содержащийся в воздухе водяной пар достигнет насыщения.
f - Относительная влажность воздуха - влажноcть воздуха, измеренная на высоте 2 м над землей.
Te - Эффективная температура - температура, которую ощущает одетый по сезону человек в тени. Характеристика душности погоды. При расчете учитывается влияние влажности воздуха и скорости ветра на теплоощущения человека.
Tes - Эффективная температура на солнце - температура, которую ощущает человек, с поправкой на солнечный нагрев. Характеристика знойности погоды. Зависит от высоты солнца над горизонтом, облачности и скорости ветра. Ночью, в пасмурную погоду, а также при ветре 12 м/с и более поправка равна нулю.
P - Атмосферное давление - приведенное к уровню моря атмосферное давление.
Po - Атмосферное давление - измеренное на уровне метеостанции атмосферное давление.
Tmin - Минимальная температура - минимум температуры воздуха на высоте 2 м над землей.
Tmax - Максимальная температура - максимум температуры воздуха на высоте 2 м над землей.
R - Количество осадков - Количество выпавших осадков за период времени, мм. При наведении курсора мыши на число - период времени, за который выпало указанное количество осадков.
R24 - Количество осадков - Количество выпавших осадков за 24 часа, мм.
S - Снежный покров - Высота снежного покрова, см. При наведении курсора мыши на число - состояние снежного покрова и степень покрытия местности в баллах.